Le Mars, IA

7:25 AM CST on December 13, 2019 (GMT -0600)
Le Mars Municipal

Weather History for KLRJ - October, 2019

Change the Weather History Date:

Friday, October 18, 2019

  Actual Average Record
Temperature  
Mean Temperature 62 °F -  
Max Temperature 77 °F 58 °F 86 °F (2003)
Min Temperature 48 °F 36 °F 20 °F (1992)
Degree Days  
Heating Degree Days 2    
Growing Degree Days 12 (Base 50)    
Moisture  
Dew Point 45 °F    
Average Humidity 63    
Maximum Humidity 93    
Minimum Humidity 32    
Precipitation  
Precipitation 0.00 in - - ()
Sea Level Pressure  
Sea Level Pressure 29.57 in    
Wind  
Wind Speed 14 mph (South)    
Max Wind Speed 30 mph    
Max Gust Speed 44 mph    
Visibility 10 miles    
Events      
Averages and records for this station are not official NWS values.
T = Trace of Precipitation, MM = Missing Value Source: NWS Daily Summary

Daily Weather History Graph

Daily Weather History Graph

Search for Another Location

Airport or City:

Astronomy

Oct. 18, 2019 Rise Set
Actual Time 7:41 AM CDT 6:37 PM CDT
Civil Twilight 7:12 AM CDT 7:06 PM CDT
Nautical Twilight 6:39 AM CDT 7:39 PM CDT
Astronomical Twilight 6:07 AM CDT 8:11 PM CDT
Moon 9:49 PM CDT (10/18) 12:20 PM CDT (10/18)
Length of Visible Light 11h 53m
Length of Day
10h 56m
Waning Gibbous, 78% of the Moon is Illuminated
Oct 18
Waning Gibbous
Oct 21
Last Quarter
Oct 27
New
Nov 4
First Quarter
Nov 12
Full

Hourly Weather History & Observations

Time (CDT) Temp. Dew Point Humidity Pressure Visibility Wind Dir Wind Speed Gust Speed Precip Events Conditions
12:15 AM 53.6 °F 44.6 °F 72% 29.73 in 10.0 mi SSE 11.5 mph 20.7 mph N/A   Clear
12:35 AM 51.8 °F 44.6 °F 76% 29.73 in 10.0 mi SSE 12.7 mph 19.6 mph N/A   Clear
12:55 AM 51.8 °F 44.6 °F 76% 29.72 in 10.0 mi SSE 12.7 mph - N/A   Clear
1:15 AM 51.8 °F 44.6 °F 76% 29.72 in 10.0 mi SSE 13.8 mph - N/A   Clear
1:35 AM 51.8 °F 44.6 °F 76% 29.71 in 10.0 mi SSE 12.7 mph 18.4 mph N/A   Clear
1:55 AM 51.8 °F 44.6 °F 76% 29.70 in 10.0 mi SSE 11.5 mph - N/A   Clear
2:15 AM 51.8 °F 44.6 °F 76% 29.69 in 10.0 mi SSE 13.8 mph - N/A   Clear
2:35 AM 51.8 °F 44.6 °F 76% 29.68 in 10.0 mi SSE 15.0 mph - N/A   Clear
2:55 AM 51.8 °F 44.6 °F 76% 29.68 in 10.0 mi SSE 16.1 mph - N/A   Clear
3:15 AM 50.0 °F 44.6 °F 82% 29.67 in 10.0 mi SSE 15.0 mph 20.7 mph N/A   Clear
3:35 AM 50.0 °F 44.6 °F 82% 29.66 in 10.0 mi SSE 11.5 mph 19.6 mph N/A   Clear
3:55 AM 50.0 °F 44.6 °F 82% 29.66 in 10.0 mi SSE 11.5 mph - N/A   Clear
4:15 AM 50.0 °F 44.6 °F 82% 29.65 in 10.0 mi SSE 15.0 mph - N/A   Clear
4:35 AM 50.0 °F 44.6 °F 82% 29.64 in 10.0 mi SSE 12.7 mph 19.6 mph N/A   Clear
4:55 AM 50.0 °F 44.6 °F 82% 29.64 in 10.0 mi SSE 12.7 mph 18.4 mph N/A   Clear
5:15 AM 50.0 °F 44.6 °F 82% 29.63 in 10.0 mi SSE 13.8 mph - N/A   Clear
5:35 AM 50.0 °F 44.6 °F 82% 29.62 in 10.0 mi SSE 12.7 mph - N/A   Clear
5:55 AM 50.0 °F 44.6 °F 82% 29.62 in 10.0 mi SSE 15.0 mph - N/A   Clear
6:15 AM 50.0 °F 44.6 °F 82% 29.61 in 10.0 mi SSE 15.0 mph - N/A   Clear
6:35 AM 50.0 °F 44.6 °F 82% 29.62 in 10.0 mi SSE 13.8 mph 19.6 mph N/A   Clear
6:55 AM 50.0 °F 44.6 °F 82% 29.62 in 10.0 mi SSE 15.0 mph - N/A   Clear
7:15 AM 50.0 °F 44.6 °F 82% 29.61 in 10.0 mi SSE 12.7 mph - N/A   Clear
7:35 AM 50.0 °F 44.6 °F 82% 29.61 in 10.0 mi SSE 12.7 mph - N/A   Clear
7:55 AM 50.0 °F 44.6 °F 82% 29.60 in 10.0 mi SSE 12.7 mph - N/A   Clear
8:15 AM 50.0 °F 44.6 °F 82% 29.60 in 10.0 mi SSE 12.7 mph - N/A   Clear
8:35 AM 51.8 °F 44.6 °F 76% 29.58 in 10.0 mi SSE 12.7 mph 20.7 mph N/A   Clear
8:55 AM 51.8 °F 44.6 °F 76% 29.59 in 10.0 mi South 15.0 mph 21.9 mph N/A   Clear
9:15 AM 53.6 °F 46.4 °F 77% 29.58 in 10.0 mi SSE 13.8 mph 21.9 mph N/A   Clear
9:35 AM 55.4 °F 44.6 °F 67% 29.57 in 10.0 mi SSE 18.4 mph - N/A   Clear
9:55 AM 57.2 °F 44.6 °F 63% 29.55 in 10.0 mi SSE 18.4 mph 25.3 mph N/A   Clear
10:15 AM 59.0 °F 44.6 °F 59% 29.54 in 10.0 mi SSE 23.0 mph 31.1 mph N/A   Clear
10:35 AM 60.8 °F 44.6 °F 55% 29.54 in 10.0 mi SSE 23.0 mph - N/A   Clear
10:55 AM 62.6 °F 44.6 °F 52% 29.53 in 10.0 mi South 21.9 mph 34.5 mph N/A   Clear
11:15 AM 62.6 °F 44.6 °F 52% 29.53 in 10.0 mi South 25.3 mph 34.5 mph N/A   Clear
11:35 AM 64.4 °F 44.6 °F 49% 29.53 in 10.0 mi SSE 20.7 mph 32.2 mph N/A   Clear
11:55 AM 66.2 °F 44.6 °F 46% 29.51 in 10.0 mi South 24.2 mph 34.5 mph N/A   Clear
12:15 PM 66.2 °F 44.6 °F 46% 29.50 in 10.0 mi SSE 21.9 mph 35.7 mph N/A   Clear
12:35 PM 68.0 °F 44.6 °F 43% 29.48 in 10.0 mi South 25.3 mph 34.5 mph N/A   Clear
12:55 PM 69.8 °F 46.4 °F 43% 29.47 in 10.0 mi SSE 24.2 mph 38.0 mph N/A   Clear
1:15 PM 69.8 °F 44.6 °F 40% 29.46 in 10.0 mi South 27.6 mph 43.7 mph N/A   Clear
1:35 PM 69.8 °F 44.6 °F 40% 29.44 in 10.0 mi SSE 29.9 mph 39.1 mph N/A   Clear
1:55 PM 71.6 °F 44.6 °F 38% 29.43 in 10.0 mi South 29.9 mph 40.3 mph N/A   Clear
2:15 PM 71.6 °F 46.4 °F 41% 29.44 in 10.0 mi South 28.8 mph 39.1 mph N/A   Clear
2:35 PM 71.6 °F 46.4 °F 41% 29.44 in 10.0 mi South 27.6 mph 39.1 mph N/A   Clear
2:55 PM 73.4 °F 46.4 °F 38% 29.44 in 10.0 mi South 24.2 mph - N/A   Clear
3:15 PM 73.4 °F 46.4 °F 38% 29.44 in 10.0 mi South 25.3 mph 31.1 mph N/A   Clear
3:35 PM 73.4 °F 46.4 °F 38% 29.44 in 10.0 mi South 24.2 mph 33.4 mph N/A   Partly Cloudy
3:55 PM 75.2 °F 46.4 °F 36% 29.44 in 10.0 mi South 25.3 mph 32.2 mph N/A   Scattered Clouds
4:15 PM 75.2 °F 48.2 °F 38% 29.44 in 10.0 mi South 19.6 mph 26.5 mph N/A   Scattered Clouds
4:35 PM 77.0 °F 46.4 °F 34% 29.44 in 10.0 mi SSW 20.7 mph 29.9 mph N/A   Partly Cloudy
4:55 PM 77.0 °F 46.4 °F 34% 29.44 in 10.0 mi SSW 23.0 mph 33.4 mph N/A   Clear
5:15 PM 77.0 °F 44.6 °F 32% 29.45 in 10.0 mi SSW 12.7 mph 19.6 mph N/A   Clear
5:35 PM 75.2 °F 44.6 °F 34% 29.46 in 10.0 mi SSW 13.8 mph 20.7 mph N/A   Clear
5:55 PM 75.2 °F 44.6 °F 34% 29.47 in 10.0 mi SW 9.2 mph - N/A   Clear
6:15 PM 71.6 °F 44.6 °F 38% 29.48 in 10.0 mi WSW 5.8 mph - N/A   Clear
6:35 PM 69.8 °F 42.8 °F 38% 29.50 in 10.0 mi WSW 5.8 mph - N/A   Clear
6:55 PM 68.0 °F 42.8 °F 40% 29.52 in 10.0 mi West 11.5 mph - N/A   Clear
7:15 PM 64.4 °F 42.8 °F 45% 29.54 in 10.0 mi West 11.5 mph 17.3 mph N/A   Clear
7:35 PM 62.6 °F 44.6 °F 52% 29.56 in 10.0 mi West 9.2 mph - N/A   Clear
7:55 PM 60.8 °F 44.6 °F 55% 29.57 in 10.0 mi West 10.4 mph - N/A   Clear
8:15 PM 59.0 °F 44.6 °F 59% 29.58 in 10.0 mi West 9.2 mph - N/A   Clear
8:35 PM 59.0 °F 46.4 °F 63% 29.60 in 10.0 mi WSW 4.6 mph - N/A   Clear
8:55 PM 57.2 °F 46.4 °F 67% 29.61 in 10.0 mi WSW 4.6 mph - N/A   Clear
9:15 PM 57.2 °F 46.4 °F 67% 29.61 in 10.0 mi SW 3.5 mph - N/A   Clear
9:35 PM 55.4 °F 46.4 °F 72% 29.62 in 10.0 mi SW 3.5 mph - N/A   Clear
9:55 PM 55.4 °F 46.4 °F 72% 29.63 in 10.0 mi Calm Calm - N/A   Clear
10:15 PM 53.6 °F 46.4 °F 77% 29.63 in 10.0 mi Calm Calm - N/A   Clear
10:35 PM 50.0 °F 46.4 °F 87% 29.63 in 10.0 mi Calm Calm - N/A   Clear
10:55 PM 48.2 °F 46.4 °F 93% 29.64 in 10.0 mi Calm Calm - N/A   Clear
11:15 PM 48.2 °F 44.6 °F 87% 29.65 in 10.0 mi SW 4.6 mph - N/A   Clear
11:35 PM 50.0 °F 44.6 °F 82% 29.66 in 10.0 mi WSW 5.8 mph - N/A   Clear
11:55 PM 50.0 °F 44.6 °F 82% 29.66 in 10.0 mi West 4.6 mph - N/A   Clear